| time (UTC) | temp C | wind direction | speed KPH | gust KPH | rain 1hr cm | rain 24hr cm | rain mn cm | humidity % | barometer mb |
| 20260507153846 | 15 | 222 | 19.3 | 25.7 | 0.00 | 0.00 | 0.00 | 49 | 1011.6 |
| 20260507153342 | 15 | 205 | 14.5 | 29.0 | 0.00 | 0.00 | 0.00 | 49 | 1011.6 |
| 20260507152838 | 15 | 210 | 12.9 | 30.6 | 0.00 | 0.00 | 0.00 | 49 | 1011.6 |
| 20260507152335 | 15 | 204 | 17.7 | 27.4 | 0.00 | 0.00 | 0.00 | 50 | 1011.8 |
| 20260507151831 | 14 | 195 | 16.1 | 27.4 | 0.00 | 0.00 | 0.00 | 53 | 1011.8 |
| 20260507151327 | 14 | 170 | 20.9 | 27.4 | 0.00 | 0.00 | 0.00 | 55 | 1011.8 |
| 20260507150824 | 14 | 222 | 22.5 | 24.1 | 0.00 | 0.00 | 0.00 | 54 | 1011.9 |
| 20260507150321 | 14 | 209 | 11.3 | 24.1 | 0.00 | 0.00 | 0.00 | 57 | 1011.9 |
| 20260507145817 | 13 | 228 | 17.7 | 25.7 | 0.00 | 0.00 | 0.00 | 57 | 1011.9 |
| 20260507145313 | 13 | 209 | 19.3 | 27.4 | 0.00 | 0.00 | 0.00 | 57 | 1012.0 |
| 20260507144811 | 13 | 233 | 24.1 | 25.7 | 0.00 | 0.00 | 0.00 | 58 | 1012.0 |
| 20260507144308 | 13 | 209 | 20.9 | 32.2 | 0.00 | 0.00 | 0.00 | 59 | 1012.4 |
| 20260507143804 | 13 | 194 | 8.0 | 19.3 | 0.00 | 0.00 | 0.00 | 61 | 1012.2 |
| 20260507143302 | 12 | 223 | 19.3 | 29.0 | 0.00 | 0.00 | 0.00 | 62 | 1012.6 |
| 20260507142758 | 12 | 203 | 22.5 | 30.6 | 0.00 | 0.00 | 0.00 | 63 | 1012.5 |
| 20260507142254 | 12 | 208 | 11.3 | 22.5 | 0.00 | 0.00 | 0.00 | 63 | 1012.7 |
| 20260507141751 | 12 | 249 | 16.1 | 24.1 | 0.00 | 0.00 | 0.00 | 64 | 1012.8 |
| 20260507141248 | 12 | 198 | 11.3 | 25.7 | 0.00 | 0.00 | 0.00 | 66 | 1012.7 |
| 20260507140744 | 11 | 216 | 14.5 | 29.0 | 0.00 | 0.00 | 0.00 | 66 | 1012.8 |
| 20260507140242 | 11 | 219 | 19.3 | 29.0 | 0.00 | 0.00 | 0.00 | 67 | 1012.8 |
| 20260507135739 | 11 | 219 | 22.5 | 30.6 | 0.00 | 0.00 | 0.00 | 67 | 1012.7 |
| 20260507135236 | 11 | 192 | 12.9 | 24.1 | 0.00 | 0.00 | 0.00 | 70 | 1012.8 |
| 20260507134732 | 11 | 223 | 17.7 | 24.1 | 0.00 | 0.00 | 0.00 | 70 | 1012.7 |
| 20260507134228 | 10 | 219 | 17.7 | 27.4 | 0.00 | 0.00 | 0.00 | 71 | 1012.9 |
| 20260507133724 | 10 | 226 | 27.4 | 32.2 | 0.00 | 0.00 | 0.00 | 71 | 1012.9 |
| 20260507133221 | 10 | 243 | 20.9 | 24.1 | 0.00 | 0.00 | 0.00 | 73 | 1013.1 |
| 20260507132719 | 10 | 212 | 12.9 | 27.4 | 0.00 | 0.00 | 0.00 | 74 | 1012.8 |
| 20260507132215 | 10 | 201 | 22.5 | 24.1 | 0.00 | 0.00 | 0.00 | 75 | 1013.0 |
| 20260507131712 | 10 | 220 | 17.7 | 22.5 | 0.00 | 0.00 | 0.00 | 76 | 1013.0 |
| 20260507131210 | 9 | 217 | 19.3 | 25.7 | 0.00 | 0.00 | 0.00 | 77 | 1013.0 |
| 20260507130706 | 9 | 220 | 14.5 | 24.1 | 0.00 | 0.00 | 0.00 | 79 | 1013.1 |
| 20260507130204 | 9 | 227 | 17.7 | 19.3 | 0.00 | 0.00 | 0.00 | 78 | 1013.0 |
| 20260507125703 | 8 | 208 | 19.3 | 27.4 | 0.00 | 0.00 | 0.00 | 79 | 1013.1 |
| 20260507125200 | 8 | 212 | 20.9 | 24.1 | 0.00 | 0.00 | 0.00 | 79 | 1013.1 |
| 20260507124656 | 8 | 203 | 14.5 | 20.9 | 0.00 | 0.00 | 0.00 | 81 | 1013.1 |
| 20260507124153 | 8 | 219 | 16.1 | 20.9 | 0.00 | 0.00 | 0.00 | 81 | 1013.0 |
| 20260507123652 | 8 | 213 | 12.9 | 20.9 | 0.00 | 0.00 | 0.00 | 81 | 1013.1 |
| 20260507123149 | 8 | 206 | 14.5 | 22.5 | 0.00 | 0.00 | 0.00 | 82 | 1013.1 |
| 20260507122643 | 8 | 201 | 8.0 | 24.1 | 0.00 | 0.00 | 0.00 | 83 | 1013.1 |
| 20260507122139 | 7 | 223 | 20.9 | 24.1 | 0.00 | 0.00 | 0.00 | 82 | 1013.0 |
| 20260507121636 | 7 | 202 | 12.9 | 17.7 | 0.00 | 0.00 | 0.00 | 84 | 1013.1 |
| 20260507121132 | 7 | 206 | 20.9 | 24.1 | 0.00 | 0.00 | 0.00 | 83 | 1013.0 |
| 20260507120628 | 7 | 196 | 16.1 | 24.1 | 0.00 | 0.00 | 0.00 | 83 | 1013.0 |
| 20260507120125 | 7 | 220 | 11.3 | 17.7 | 0.00 | 0.00 | 0.00 | 85 | 1013.3 |
| 20260507115621 | 7 | 204 | 14.5 | 19.3 | 0.00 | 0.00 | 0.00 | 84 | 1013.2 |
| 20260507115117 | 7 | 202 | 12.9 | 17.7 | 0.00 | 0.00 | 0.00 | 84 | 1013.1 |
| 20260507114613 | 7 | 218 | 14.5 | 19.3 | 0.00 | 0.00 | 0.00 | 84 | 1013.3 |
| 20260507114110 | 7 | 195 | 14.5 | 17.7 | 0.00 | 0.00 | 0.00 | 83 | 1013.3 |
| 20260507113608 | 7 | 228 | 14.5 | 17.7 | 0.00 | 0.00 | 0.00 | 83 | 1013.1 |
| 20260507113105 | 7 | 215 | 14.5 | 19.3 | 0.00 | 0.00 | 0.00 | 83 | 1013.1 |
| 20260507112603 | 7 | 221 | 14.5 | 17.7 | 0.00 | 0.00 | 0.00 | 83 | 1013.2 |
| 20260507112059 | 7 | 204 | 14.5 | 16.1 | 0.00 | 0.00 | 0.00 | 83 | 1013.3 |
| 20260507111556 | 7 | 209 | 9.7 | 19.3 | 0.00 | 0.00 | 0.00 | 82 | 1013.2 |
| 20260507111052 | 7 | 198 | 11.3 | 20.9 | 0.00 | 0.00 | 0.00 | 85 | 1013.1 |
| 20260507110549 | 7 | 201 | 14.5 | 19.3 | 0.00 | 0.00 | 0.00 | 83 | 1013.0 |
| 20260507110046 | 7 | 211 | 14.5 | 19.3 | 0.00 | 0.00 | 0.00 | 83 | 1013.0 |
| 20260507105543 | 7 | 203 | 12.9 | 19.3 | 0.00 | 0.00 | 0.00 | 83 | 1013.2 |
| 20260507105039 | 7 | 204 | 12.9 | 19.3 | 0.00 | 0.00 | 0.00 | 82 | 1013.2 |
| 20260507104536 | 7 | 207 | 12.9 | 24.1 | 0.00 | 0.00 | 0.00 | 82 | 1013.3 |
| 20260507104032 | 7 | 206 | 12.9 | 19.3 | 0.00 | 0.00 | 0.00 | 81 | 1013.2 |
| 20260507103529 | 7 | 224 | 9.7 | 17.7 | 0.00 | 0.00 | 0.00 | 82 | 1013.1 |
| 20260507103025 | 7 | 218 | 16.1 | 19.3 | 0.00 | 0.00 | 0.00 | 81 | 1012.9 |
| 20260507102522 | 7 | 202 | 11.3 | 20.9 | 0.00 | 0.00 | 0.00 | 82 | 1013.2 |
| 20260507102018 | 7 | 204 | 12.9 | 22.5 | 0.00 | 0.00 | 0.00 | 80 | 1013.1 |
| 20260507101514 | 7 | 199 | 17.7 | 20.9 | 0.00 | 0.00 | 0.00 | 80 | 1013.1 |
| 20260507101010 | 8 | 212 | 14.5 | 20.9 | 0.00 | 0.00 | 0.00 | 80 | 1013.2 |
| 20260507100508 | 7 | 205 | 16.1 | 19.3 | 0.00 | 0.00 | 0.00 | 80 | 1013.1 |
| 20260507100006 | 8 | 205 | 19.3 | 20.9 | 0.00 | 0.00 | 0.00 | 79 | 1013.0 |
| 20260507095503 | 8 | 209 | 12.9 | 19.3 | 0.00 | 0.00 | 0.00 | 80 | 1013.3 |
| 20260507095000 | 8 | 210 | 12.9 | 22.5 | 0.00 | 0.00 | 0.00 | 79 | 1013.2 |
| 20260507094456 | 8 | 194 | 12.9 | 17.7 | 0.00 | 0.00 | 0.00 | 80 | 1013.2 |
| 20260507093953 | 8 | 205 | 9.7 | 19.3 | 0.00 | 0.00 | 0.00 | 79 | 1013.2 |
| 20260507093450 | 8 | 196 | 9.7 | 19.3 | 0.00 | 0.00 | 0.00 | 80 | 1013.3 |
| 20260507092949 | 8 | 221 | 11.3 | 17.7 | 0.00 | 0.00 | 0.00 | 79 | 1013.4 |
| 20260507092445 | 8 | 207 | 9.7 | 14.5 | 0.00 | 0.00 | 0.00 | 80 | 1013.3 |
| 20260507091941 | 8 | 203 | 9.7 | 16.1 | 0.00 | 0.00 | 0.00 | 79 | 1013.5 |
| 20260507091438 | 8 | 213 | 12.9 | 17.7 | 0.00 | 0.00 | 0.00 | 78 | 1013.5 |
| 20260507090933 | 8 | 206 | 12.9 | 16.1 | 0.00 | 0.00 | 0.00 | 77 | 1013.5 |
| 20260507090430 | 8 | 216 | 11.3 | 14.5 | 0.00 | 0.00 | 0.00 | 77 | 1013.7 |
| 20260507085926 | 8 | 208 | 11.3 | 14.5 | 0.00 | 0.00 | 0.00 | 78 | 1013.7 |
| 20260507085424 | 8 | 210 | 14.5 | 16.1 | 0.00 | 0.00 | 0.00 | 76 | 1013.8 |
| 20260507084921 | 8 | 198 | 9.7 | 16.1 | 0.00 | 0.00 | 0.00 | 79 | 1013.8 |
| 20260507084418 | 8 | 213 | 14.5 | 19.3 | 0.00 | 0.00 | 0.00 | 76 | 1014.0 |
| 20260507083915 | 8 | 204 | 12.9 | 17.7 | 0.00 | 0.00 | 0.00 | 75 | 1014.1 |
| 20260507083411 | 8 | 212 | 16.1 | 16.1 | 0.00 | 0.00 | 0.00 | 75 | 1014.0 |
| 20260507082907 | 8 | 213 | 11.3 | 14.5 | 0.00 | 0.00 | 0.00 | 75 | 1014.0 |
| 20260507082403 | 8 | 217 | 9.7 | 14.5 | 0.00 | 0.00 | 0.00 | 74 | 1014.0 |
| 20260507081900 | 7 | 207 | 9.7 | 12.9 | 0.00 | 0.00 | 0.00 | 75 | 1014.4 |
| 20260507081356 | 7 | 211 | 9.7 | 16.1 | 0.00 | 0.00 | 0.00 | 74 | 1014.1 |
| 20260507080853 | 7 | 204 | 8.0 | 12.9 | 0.00 | 0.00 | 0.00 | 75 | 1014.4 |
| 20260507080349 | 7 | 211 | 9.7 | 14.5 | 0.00 | 0.00 | 0.00 | 73 | 1014.1 |
| 20260507075844 | 7 | 203 | 9.7 | 12.9 | 0.00 | 0.00 | 0.00 | 72 | 1014.7 |
| 20260507075341 | 7 | 202 | 8.0 | 9.7 | 0.00 | 0.00 | 0.00 | 72 | 1014.7 |
| 20260507074837 | 7 | 208 | 4.8 | 9.7 | 0.00 | 0.00 | 0.00 | 71 | 1014.7 |
| 20260507074335 | 7 | 227 | 9.7 | 9.7 | 0.00 | 0.00 | 0.00 | 71 | 1014.8 |
| 20260507073832 | 7 | 203 | 6.4 | 8.0 | 0.00 | 0.00 | 0.00 | 70 | 1014.7 |
| 20260507073329 | 7 | 226 | 6.4 | 9.7 | 0.00 | 0.00 | 0.00 | 70 | 1014.8 |
| 20260507072826 | 7 | 219 | 3.2 | 9.7 | 0.00 | 0.00 | 0.00 | 71 | 1014.8 |
| 20260507072323 | 7 | 211 | 8.0 | 9.7 | 0.00 | 0.00 | 0.00 | 68 | 1014.9 |
| 20260507071820 | 7 | 219 | 8.0 | 9.7 | 0.00 | 0.00 | 0.00 | 68 | 1014.8 |
| 20260507071317 | 7 | 197 | 6.4 | 9.7 | 0.00 | 0.00 | 0.00 | 67 | 1015.0 |
| 20260507070814 | 8 | 223 | 6.4 | 8.0 | 0.00 | 0.00 | 0.00 | 69 | 1015.1 |
| 20260507070311 | 8 | 194 | 3.2 | 8.0 | 0.00 | 0.00 | 0.00 | 66 | 1015.1 |
| 20260507065808 | 8 | 201 | 4.8 | 9.7 | 0.00 | 0.00 | 0.00 | 63 | 1015.3 |
| 20260507065306 | 8 | 198 | 6.4 | 9.7 | 0.00 | 0.00 | 0.00 | 63 | 1015.3 |
| 20260507064801 | 8 | 211 | 4.8 | 9.7 | 0.00 | 0.00 | 0.00 | 62 | 1015.1 |
| 20260507064300 | 8 | 206 | 11.3 | 11.3 | 0.00 | 0.00 | 0.00 | 61 | 1015.3 |
| 20260507063758 | 8 | 202 | 6.4 | 9.7 | 0.00 | 0.00 | 0.00 | 62 | 1015.3 |
| 20260507063254 | 8 | 214 | 9.7 | 11.3 | 0.00 | 0.00 | 0.00 | 64 | 1015.4 |
| 20260507062751 | 8 | 211 | 8.0 | 9.7 | 0.00 | 0.00 | 0.00 | 62 | 1015.5 |
| 20260507062248 | 8 | 223 | 6.4 | 9.7 | 0.00 | 0.00 | 0.00 | 60 | 1015.5 |
| 20260507061746 | 8 | 208 | 6.4 | 9.7 | 0.00 | 0.00 | 0.00 | 60 | 1015.6 |
| 20260507061244 | 8 | 197 | 9.7 | 9.7 | 0.00 | 0.00 | 0.00 | 59 | 1015.6 |
| 20260507060742 | 8 | 202 | 6.4 | 9.7 | 0.00 | 0.00 | 0.00 | 57 | 1015.8 |
| 20260507060238 | 8 | 201 | 6.4 | 9.7 | 0.00 | 0.00 | 0.00 | 60 | 1015.8 |
| 20260507055734 | 8 | 219 | 6.4 | 11.3 | 0.00 | 0.00 | 0.00 | 59 | 1015.6 |
| 20260507055230 | 8 | 192 | 1.6 | 8.0 | 0.00 | 0.00 | 0.00 | 57 | 1015.7 |
| 20260507054726 | 8 | 200 | 3.2 | 8.0 | 0.00 | 0.00 | 0.00 | 55 | 1015.8 |
| 20260507054224 | 8 | 207 | 4.8 | 8.0 | 0.00 | 0.00 | 0.00 | 54 | 1015.7 |
| 20260507053721 | 8 | 211 | 4.8 | 6.4 | 0.00 | 0.00 | 0.00 | 53 | 1015.8 |
| 20260507053219 | 9 | 223 | 4.8 | 9.7 | 0.00 | 0.00 | 0.00 | 53 | 1015.6 |
| 20260507052717 | 9 | 207 | 6.4 | 8.0 | 0.00 | 0.00 | 0.00 | 51 | 1015.4 |
| 20260507052208 | 9 | 206 | 4.8 | 9.7 | 0.00 | 0.00 | 0.00 | 51 | 1015.5 |
| 20260507051706 | 9 | 226 | 4.8 | 8.0 | 0.00 | 0.00 | 0.00 | 52 | 1015.5 |
| 20260507051202 | 8 | 255 | 1.6 | 8.0 | 0.00 | 0.00 | 0.00 | 55 | 1015.6 |
| 20260507050659 | 8 | 201 | 3.2 | 11.3 | 0.00 | 0.00 | 0.00 | 52 | 1015.5 |
| 20260507050156 | 9 | 208 | 6.4 | 12.9 | 0.00 | 0.00 | 0.00 | 50 | 1015.8 |
| 20260507045652 | 9 | 210 | 11.3 | 12.9 | 0.00 | 0.00 | 0.00 | 51 | 1015.8 |
| 20260507045149 | 9 | 203 | 4.8 | 9.7 | 0.00 | 0.00 | 0.00 | 54 | 1015.9 |
| 20260507044646 | 9 | 217 | 6.4 | 12.9 | 0.00 | 0.00 | 0.00 | 51 | 1015.6 |
| 20260507044142 | 10 | 204 | 9.7 | 12.9 | 0.00 | 0.00 | 0.00 | 49 | 1015.9 |
| 20260507043638 | 10 | 203 | 11.3 | 16.1 | 0.00 | 0.00 | 0.00 | 47 | 1015.8 |
| 20260507043136 | 10 | 202 | 9.7 | 17.7 | 0.00 | 0.00 | 0.00 | 47 | 1015.7 |
| 20260507042632 | 10 | 204 | 6.4 | 8.0 | 0.00 | 0.00 | 0.00 | 47 | 1015.9 |
| 20260507042121 | 10 | 199 | 6.4 | 9.7 | 0.00 | 0.00 | 0.00 | 47 | 1015.9 |
| 20260507041619 | 10 | 208 | 4.8 | 8.0 | 0.00 | 0.00 | 0.00 | 50 | 1015.9 |
| 20260507041115 | 10 | 209 | 4.8 | 9.7 | 0.00 | 0.00 | 0.00 | 49 | 1016.1 |
| 20260507040613 | 10 | 161 | 3.2 | 6.4 | 0.00 | 0.00 | 0.00 | 49 | 1016.0 |
| 20260507040109 | 10 | 136 | 4.8 | 6.4 | 0.00 | 0.00 | 0.00 | 46 | 1016.0 |
| 20260507035605 | 10 | 138 | 4.8 | 6.4 | 0.00 | 0.00 | 0.00 | 46 | 1015.9 |
| 20260507035101 | 10 | 134 | 3.2 | 6.4 | 0.00 | 0.00 | 0.00 | 47 | 1016.1 |
| 20260507034558 | 10 | 133 | 6.4 | 6.4 | 0.00 | 0.00 | 0.00 | 46 | 1016.0 |
| 20260507034056 | 10 | 129 | 4.8 | 4.8 | 0.00 | 0.00 | 0.00 | 46 | 1016.2 |
| 20260507033554 | 10 | 127 | 3.2 | 4.8 | 0.00 | 0.00 | 0.00 | 45 | 1016.1 |
| 20260507033051 | 10 | 135 | 4.8 | 6.4 | 0.00 | 0.00 | 0.00 | 45 | 1016.3 |
| 20260507032548 | 10 | 120 | 1.6 | 4.8 | 0.00 | 0.00 | 0.00 | 45 | 1016.2 |
| 20260507032044 | 10 | 123 | 3.2 | 4.8 | 0.00 | 0.00 | 0.00 | 47 | 1016.4 |
| 20260507031540 | 10 | 137 | 4.8 | 4.8 | 0.00 | 0.00 | 0.00 | 48 | 1016.4 |
| 20260507031037 | 10 | 134 | 3.2 | 4.8 | 0.00 | 0.00 | 0.00 | 51 | 1016.4 |
| 20260507030534 | 11 | 122 | 3.2 | 4.8 | 0.00 | 0.00 | 0.00 | 50 | 1016.4 |
| 20260507030032 | 11 | 149 | 3.2 | 4.8 | 0.00 | 0.00 | 0.00 | 47 | 1016.2 |
| 20260507025529 | 11 | 134 | 3.2 | 4.8 | 0.00 | 0.00 | 0.00 | 47 | 1016.4 |
| 20260507025026 | 11 | 138 | 3.2 | 4.8 | 0.00 | 0.00 | 0.00 | 47 | 1016.2 |
| 20260507024524 | 11 | 115 | 3.2 | 3.2 | 0.00 | 0.00 | 0.00 | 42 | 1016.3 |
| 20260507024020 | 11 | 129 | 3.2 | 4.8 | 0.00 | 0.00 | 0.00 | 42 | 1016.4 |
| 20260507023516 | 11 | 124 | 4.8 | 4.8 | 0.00 | 0.00 | 0.00 | 44 | 1016.3 |
| 20260507023014 | 11 | 134 | 6.4 | 8.0 | 0.00 | 0.00 | 0.00 | 46 | 1016.2 |
| 20260507022510 | 11 | 138 | 6.4 | 9.7 | 0.00 | 0.00 | 0.00 | 45 | 1016.1 |
| 20260507022005 | 11 | 141 | 3.2 | 3.2 | 0.00 | 0.00 | 0.00 | 43 | 1016.0 |
| 20260507021501 | 12 | 139 | 3.2 | 4.8 | 0.00 | 0.00 | 0.00 | 44 | 1016.2 |
| 20260507020958 | 12 | 115 | 3.2 | 3.2 | 0.00 | 0.00 | 0.00 | 44 | 1016.0 |
| 20260507020455 | 12 | 117 | 3.2 | 3.2 | 0.00 | 0.00 | 0.00 | 45 | 1015.9 |
| 20260507015952 | 12 | 111 | 1.6 | 4.8 | 0.00 | 0.00 | 0.00 | 44 | 1016.1 |
| 20260507015451 | 12 | 112 | 1.6 | 3.2 | 0.00 | 0.00 | 0.00 | 43 | 1015.9 |
| 20260507014947 | 12 | 124 | 3.2 | 4.8 | 0.00 | 0.00 | 0.00 | 39 | 1016.1 |
| 20260507014444 | 12 | 102 | 3.2 | 4.8 | 0.00 | 0.00 | 0.00 | 39 | 1016.0 |
| 20260507013940 | 12 | 86 | 3.2 | 3.2 | 0.00 | 0.00 | 0.00 | 38 | 1015.9 |
| 20260507013437 | 12 | 110 | 4.8 | 4.8 | 0.00 | 0.00 | 0.00 | 38 | 1015.8 |
| 20260507012935 | 13 | 61 | 1.6 | 4.8 | 0.00 | 0.00 | 0.00 | 37 | 1015.8 |
| 20260507012431 | 13 | 306 | 3.2 | 4.8 | 0.00 | 0.00 | 0.00 | 36 | 1016.0 |
| 20260507011928 | 13 | 330 | 3.2 | 4.8 | 0.00 | 0.00 | 0.00 | 35 | 1016.2 |
| 20260507011425 | 13 | 301 | 3.2 | 4.8 | 0.00 | 0.00 | 0.00 | 39 | 1016.1 |
| 20260507010920 | 14 | 209 | 3.2 | 4.8 | 0.00 | 0.00 | 0.00 | 33 | 1016.1 |
| 20260507010415 | 15 | 305 | 3.2 | 4.8 | 0.00 | 0.00 | 0.00 | 31 | 1015.9 |
| 20260507005913 | 15 | 215 | 3.2 | 4.8 | 0.00 | 0.00 | 0.00 | 33 | 1016.0 |
| 20260507005410 | 15 | 273 | 3.2 | 6.4 | 0.00 | 0.00 | 0.00 | 33 | 1016.2 |
| 20260507004906 | 15 | 261 | 3.2 | 8.0 | 0.00 | 0.00 | 0.00 | 32 | 1016.1 |
| 20260507004402 | 15 | 276 | 3.2 | 6.4 | 0.00 | 0.00 | 0.00 | 32 | 1016.1 |
| 20260507003901 | 15 | 293 | 4.8 | 8.0 | 0.00 | 0.00 | 0.00 | 34 | 1015.9 |
| 20260507003355 | 15 | 263 | 9.7 | 9.7 | 0.00 | 0.00 | 0.00 | 28 | 1015.9 |
| 20260507002851 | 15 | 291 | 6.4 | 14.5 | 0.00 | 0.00 | 0.00 | 32 | 1016.2 |
| 20260507002347 | 16 | 246 | 6.4 | 11.3 | 0.00 | 0.00 | 0.00 | 31 | 1016.2 |
| 20260507001844 | 16 | 255 | 8.0 | 11.3 | 0.00 | 0.00 | 0.00 | 30 | 1016.0 |
| 20260507001341 | 15 | 287 | 9.7 | 12.9 | 0.00 | 0.00 | 0.00 | 31 | 1016.3 |
| 20260507000838 | 15 | 273 | 6.4 | 11.3 | 0.00 | 0.00 | 0.00 | 30 | 1016.1 |
| 20260507000335 | 15 | 309 | 11.3 | 14.5 | 0.00 | 0.00 | 0.00 | 31 | 1016.3 |
| 20260506235830 | 15 | 330 | 11.3 | 12.9 | 0.00 | 0.00 | 0.00 | 31 | 1016.0 |
| 20260506235327 | 15 | 331 | 9.7 | 12.9 | 0.00 | 0.00 | 0.00 | 31 | 1016.3 |
| 20260506234823 | 15 | 346 | 4.8 | 19.3 | 0.00 | 0.00 | 0.00 | 33 | 1016.2 |
| 20260506234321 | 15 | 345 | 6.4 | 14.5 | 0.00 | 0.00 | 0.00 | 29 | 1016.4 |
| 20260506233818 | 15 | 314 | 14.5 | 16.1 | 0.00 | 0.00 | 0.00 | 30 | 1016.6 |
| 20260506233314 | 15 | 334 | 9.7 | 14.5 | 0.00 | 0.00 | 0.00 | 33 | 1016.5 |
| 20260506232811 | 15 | 291 | 3.2 | 16.1 | 0.00 | 0.00 | 0.00 | 31 | 1016.7 |
| 20260506232306 | 15 | 312 | 9.7 | 16.1 | 0.00 | 0.00 | 0.00 | 32 | 1016.5 |
| 20260506231803 | 15 | 2 | 8.0 | 17.7 | 0.00 | 0.00 | 0.00 | 30 | 1016.5 |
| 20260506231301 | 15 | 320 | 22.5 | 22.5 | 0.00 | 0.00 | 0.00 | 34 | 1016.7 |
| 20260506230758 | 15 | 311 | 11.3 | 17.7 | 0.00 | 0.00 | 0.00 | 31 | 1016.4 |
| 20260506230255 | 15 | 298 | 11.3 | 20.9 | 0.00 | 0.00 | 0.00 | 34 | 1016.6 |
| 20260506225751 | 15 | 313 | 9.7 | 20.9 | 0.00 | 0.00 | 0.00 | 29 | 1016.7 |
| 20260506225249 | 15 | 302 | 4.8 | 20.9 | 0.00 | 0.00 | 0.00 | 32 | 1016.6 |
| 20260506224744 | 15 | 311 | 14.5 | 20.9 | 0.00 | 0.00 | 0.00 | 33 | 1016.6 |
| 20260506224242 | 15 | 343 | 17.7 | 27.4 | 0.00 | 0.00 | 0.00 | 29 | 1016.8 |
| 20260506223732 | 15 | 296 | 17.7 | 24.1 | 0.00 | 0.00 | 0.00 | 29 | 1016.7 |
| 20260506223227 | 15 | 325 | 16.1 | 25.7 | 0.00 | 0.00 | 0.00 | 28 | 1016.9 |
| 20260506222725 | 15 | 332 | 17.7 | 30.6 | 0.00 | 0.00 | 0.00 | 37 | 1016.8 |
| 20260506222220 | 15 | 322 | 20.9 | 38.6 | 0.00 | 0.00 | 0.00 | 34 | 1016.7 |
| 20260506221718 | 15 | 309 | 6.4 | 17.7 | 0.00 | 0.00 | 0.00 | 28 | 1016.8 |
| 20260506221216 | 15 | 340 | 16.1 | 25.7 | 0.00 | 0.00 | 0.00 | 30 | 1016.8 |
| 20260506220713 | 15 | 305 | 27.4 | 29.0 | 0.00 | 0.00 | 0.00 | 29 | 1017.1 |
| 20260506220208 | 15 | 335 | 20.9 | 33.8 | 0.00 | 0.00 | 0.00 | 30 | 1017.0 |
| 20260506215705 | 15 | 319 | 29.0 | 30.6 | 0.00 | 0.00 | 0.00 | 31 | 1017.0 |
| 20260506215200 | 15 | 299 | 11.3 | 24.1 | 0.00 | 0.00 | 0.00 | 33 | 1016.9 |
| 20260506214657 | 15 | 330 | 17.7 | 29.0 | 0.00 | 0.00 | 0.00 | 35 | 1017.1 |
| 20260506214154 | 15 | 325 | 25.7 | 33.8 | 0.00 | 0.00 | 0.00 | 30 | 1017.0 |
| 20260506213653 | 15 | 329 | 16.1 | 25.7 | 0.00 | 0.00 | 0.00 | 31 | 1016.9 |
| 20260506213150 | 15 | 314 | 19.3 | 25.7 | 0.00 | 0.00 | 0.00 | 30 | 1017.1 |
| 20260506212647 | 15 | 285 | 12.9 | 14.5 | 0.00 | 0.00 | 0.00 | 29 | 1017.2 |
| 20260506212141 | 15 | 323 | 14.5 | 24.1 | 0.00 | 0.00 | 0.00 | 35 | 1017.2 |
| 20260506211638 | 15 | 305 | 16.1 | 24.1 | 0.00 | 0.00 | 0.00 | 35 | 1017.7 |
| 20260506211134 | 15 | 302 | 8.0 | 17.7 | 0.00 | 0.00 | 0.00 | 33 | 1017.5 |
| 20260506210631 | 15 | 259 | 16.1 | 30.6 | 0.00 | 0.00 | 0.00 | 31 | 1017.3 |
| 20260506210128 | 15 | 272 | 11.3 | 22.5 | 0.00 | 0.00 | 0.00 | 27 | 1017.5 |
| 20260506205625 | 14 | 331 | 9.7 | 17.7 | 0.00 | 0.00 | 0.00 | 33 | 1017.4 |
| 20260506205120 | 15 | 305 | 33.8 | 35.4 | 0.00 | 0.00 | 0.00 | 31 | 1017.8 |
| 20260506204619 | 14 | 337 | 12.9 | 33.8 | 0.00 | 0.00 | 0.00 | 36 | 1017.8 |
| 20260506204115 | 15 | 313 | 25.7 | 35.4 | 0.00 | 0.00 | 0.00 | 33 | 1017.8 |
| 20260506203613 | 14 | 315 | 9.7 | 27.4 | 0.00 | 0.00 | 0.00 | 30 | 1018.1 |
| 20260506203110 | 13 | 336 | 8.0 | 24.1 | 0.00 | 0.00 | 0.00 | 33 | 1018.2 |
| 20260506202608 | 13 | 306 | 19.3 | 29.0 | 0.00 | 0.00 | 0.00 | 29 | 1018.3 |
| 20260506202104 | 15 | 228 | 22.5 | 32.2 | 0.00 | 0.00 | 0.00 | 30 | 1018.0 |
| 20260506201601 | 14 | 301 | 19.3 | 22.5 | 0.00 | 0.00 | 0.00 | 30 | 1018.0 |
| 20260506201058 | 14 | 318 | 17.7 | 22.5 | 0.00 | 0.00 | 0.00 | 30 | 1018.1 |
| 20260506200554 | 14 | 304 | 12.9 | 22.5 | 0.00 | 0.00 | 0.00 | 34 | 1018.3 |
| 20260506200051 | 14 | 322 | 12.9 | 24.1 | 0.00 | 0.00 | 0.00 | 32 | 1018.5 |
| 20260506195547 | 14 | 291 | 8.0 | 16.1 | 0.00 | 0.00 | 0.00 | 29 | 1018.4 |
| 20260506195043 | 13 | 348 | 8.0 | 20.9 | 0.00 | 0.00 | 0.00 | 31 | 1018.5 |
| 20260506194541 | 13 | 345 | 16.1 | 35.4 | 0.00 | 0.00 | 0.00 | 31 | 1018.6 |
| 20260506194037 | 13 | 311 | 9.7 | 16.1 | 0.00 | 0.00 | 0.00 | 37 | 1018.4 |
| 20260506193535 | 13 | 295 | 24.1 | 27.4 | 0.00 | 0.00 | 0.00 | 32 | 1018.5 |
| 20260506193032 | 13 | 299 | 25.7 | 35.4 | 0.00 | 0.00 | 0.00 | 33 | 1018.4 |
| 20260506192529 | 13 | 343 | 12.9 | 22.5 | 0.00 | 0.00 | 0.00 | 33 | 1018.4 |
| 20260506192024 | 13 | 341 | 14.5 | 19.3 | 0.00 | 0.00 | 0.00 | 33 | 1018.7 |
| 20260506191521 | 13 | 340 | 17.7 | 22.5 | 0.00 | 0.00 | 0.00 | 35 | 1018.6 |
| 20260506191018 | 13 | 316 | 14.5 | 14.5 | 0.00 | 0.00 | 0.00 | 37 | 1018.7 |
| 20260506190515 | 13 | 341 | 12.9 | 24.1 | 0.00 | 0.00 | 0.00 | 36 | 1018.9 |
| 20260506190012 | 13 | 272 | 4.8 | 30.6 | 0.00 | 0.00 | 0.00 | 33 | 1018.7 |
| 20260506185509 | 13 | 23 | 11.3 | 19.3 | 0.00 | 0.00 | 0.00 | 36 | 1018.6 |
| 20260506185006 | 13 | 332 | 8.0 | 20.9 | 0.00 | 0.00 | 0.00 | 35 | 1018.8 |
| 20260506184503 | 12 | 319 | 17.7 | 27.4 | 0.00 | 0.00 | 0.00 | 36 | 1018.9 |
| 20260506184000 | 12 | 339 | 11.3 | 19.3 | 0.00 | 0.00 | 0.00 | 33 | 1019.1 |
| 20260506183455 | 12 | 274 | 11.3 | 29.0 | 0.00 | 0.00 | 0.00 | 37 | 1019.0 |
| 20260506182952 | 12 | 339 | 12.9 | 14.5 | 0.00 | 0.00 | 0.00 | 38 | 1018.8 |
| 20260506182449 | 12 | 343 | 17.7 | 25.7 | 0.00 | 0.00 | 0.00 | 35 | 1018.9 |
| 20260506181947 | 12 | 312 | 14.5 | 17.7 | 0.00 | 0.00 | 0.00 | 37 | 1019.0 |
| 20260506181445 | 12 | 345 | 14.5 | 19.3 | 0.00 | 0.00 | 0.00 | 39 | 1019.2 |
| 20260506180941 | 12 | 316 | 25.7 | 32.2 | 0.00 | 0.00 | 0.00 | 37 | 1019.4 |
| 20260506180437 | 12 | 335 | 19.3 | 30.6 | 0.00 | 0.00 | 0.00 | 40 | 1019.5 |
| 20260506175929 | 12 | 322 | 9.7 | 27.4 | 0.00 | 0.00 | 0.00 | 42 | 1019.3 |
| 20260506175426 | 12 | 326 | 16.1 | 25.7 | 0.00 | 0.00 | 0.00 | 34 | 1019.4 |
| 20260506174922 | 12 | 296 | 8.0 | 25.7 | 0.00 | 0.00 | 0.00 | 32 | 1019.5 |
| 20260506174420 | 12 | 319 | 22.5 | 32.2 | 0.00 | 0.00 | 0.00 | 39 | 1019.5 |
| 20260506173917 | 12 | 5 | 14.5 | 20.9 | 0.00 | 0.00 | 0.00 | 37 | 1019.5 |
| 20260506173413 | 12 | 313 | 30.6 | 30.6 | 0.00 | 0.00 | 0.00 | 38 | 1019.7 |
| 20260506172911 | 12 | 310 | 17.7 | 25.7 | 0.00 | 0.00 | 0.00 | 35 | 1019.9 |
| 20260506172407 | 12 | 246 | 11.3 | 22.5 | 0.00 | 0.00 | 0.00 | 39 | 1019.8 |
| 20260506171904 | 11 | 285 | 20.9 | 37.0 | 0.00 | 0.00 | 0.00 | 35 | 1019.9 |
| 20260506171401 | 12 | 278 | 16.1 | 30.6 | 0.00 | 0.00 | 0.00 | 36 | 1019.8 |
| 20260506170854 | 11 | 348 | 3.2 | 12.9 | 0.00 | 0.00 | 0.00 | 34 | 1019.7 |
| 20260506170349 | 11 | 332 | 16.1 | 20.9 | 0.00 | 0.00 | 0.00 | 35 | 1020.0 |
| 20260506165849 | 11 | 318 | 12.9 | 20.9 | 0.00 | 0.00 | 0.00 | 35 | 1019.9 |
| 20260506165346 | 11 | 346 | 4.8 | 14.5 | 0.00 | 0.00 | 0.00 | 36 | 1020.0 |
| 20260506164842 | 11 | 259 | 14.5 | 24.1 | 0.00 | 0.00 | 0.00 | 36 | 1019.8 |
| 20260506164339 | 11 | 327 | 16.1 | 33.8 | 0.00 | 0.00 | 0.00 | 39 | 1020.0 |
| 20260506163837 | 11 | 346 | 8.0 | 17.7 | 0.00 | 0.00 | 0.00 | 42 | 1020.1 |
| 20260506163331 | 11 | 300 | 14.5 | 20.9 | 0.00 | 0.00 | 0.00 | 40 | 1020.3 |
| 20260506162827 | 11 | 319 | 8.0 | 16.1 | 0.00 | 0.00 | 0.00 | 40 | 1020.2 |
| 20260506162325 | 11 | 279 | 9.7 | 17.7 | 0.00 | 0.00 | 0.00 | 40 | 1020.1 |
| 20260506161823 | 11 | 335 | 8.0 | 12.9 | 0.00 | 0.00 | 0.00 | 41 | 1020.1 |
| 20260506161319 | 10 | 301 | 19.3 | 24.1 | 0.00 | 0.00 | 0.00 | 38 | 1020.0 |
| 20260506160817 | 11 | 311 | 25.7 | 30.6 | 0.00 | 0.00 | 0.00 | 40 | 1020.2 |
| 20260506160308 | 11 | 314 | 16.1 | 22.5 | 0.00 | 0.00 | 0.00 | 41 | 1020.2 |
| 20260506155807 | 11 | 316 | 14.5 | 24.1 | 0.00 | 0.00 | 0.00 | 39 | 1020.3 |
| 20260506155306 | 10 | 334 | 12.9 | 24.1 | 0.00 | 0.00 | 0.00 | 41 | 1020.0 |